Time,TemperatureF,DewpointF,PressureIn,WindDirection,WindDirectionDegrees,WindSpeedMPH,WindSpeedGustMPH,Humidity,HourlyPrecipIn,Conditions,Clouds,dailyrainin,SolarRadiationWatts/m^2,SoftwareType,DateUTC
2013-01-30 00:11:00,46.0,39.0,-100.00,WNW,296,7.0,18.0,77,-99.99,,,0.01,0.000000,,2013-01-30 08:11:00,
2013-01-30 01:11:00,45.0,39.0,-100.00,WNW,291,6.0,15.0,80,-99.99,,,0.00,0.000000,,2013-01-30 09:11:00,
2013-01-30 01:52:00,44.0,39.0,-100.00,WNW,298,9.0,20.0,82,-99.99,,,0.00,0.000000,,2013-01-30 09:52:00,
2013-01-30 02:01:00,44.0,39.0,-100.00,WNW,298,9.0,20.0,82,-99.99,,,0.00,0.000000,,2013-01-30 10:01:00,
2013-01-30 02:11:00,44.0,39.0,-100.00,WNW,298,9.0,20.0,82,-99.99,,,0.00,0.000000,,2013-01-30 10:11:00,
2013-01-30 03:11:00,44.0,39.0,-100.00,WNW,298,9.0,25.0,83,-99.99,,,0.00,0.000000,,2013-01-30 11:11:00,
2013-01-30 04:12:00,43.0,40.0,-100.00,WNW,294,6.0,19.0,86,-99.99,,,0.00,0.000000,,2013-01-30 12:12:00,
2013-01-30 05:12:00,44.0,40.0,-100.00,WNW,298,9.0,28.0,85,-99.99,,,0.00,0.000000,,2013-01-30 13:12:00,
2013-01-30 06:11:00,44.0,40.0,-100.00,WNW,301,8.0,19.0,85,-99.99,,,0.00,0.000000,,2013-01-30 14:11:00,
2013-01-30 07:12:00,44.0,40.0,-100.00,WNW,293,8.0,21.0,86,-99.99,,,0.00,0.000000,,2013-01-30 15:12:00,
2013-01-30 08:12:00,44.0,40.0,-100.00,WNW,300,7.0,17.0,85,-99.99,,,0.00,0.120000,,2013-01-30 16:12:00,
2013-01-30 09:12:00,45.0,41.0,-100.00,WNW,294,7.0,19.0,85,-99.99,,,0.00,8.020000,,2013-01-30 17:12:00,
2013-01-30 10:12:00,45.0,41.0,-100.00,WNW,298,7.0,22.0,87,-99.99,,,0.00,44.400002,,2013-01-30 18:12:00,
2013-01-30 10:53:00,46.0,42.0,-100.00,NW,306,9.0,22.0,84,-99.99,,,0.00,128.660004,,2013-01-30 18:53:00,
2013-01-30 11:02:00,46.0,42.0,-100.00,NW,306,9.0,22.0,84,-99.99,,,0.00,128.660004,,2013-01-30 19:02:00,
2013-01-30 11:12:00,46.0,42.0,-100.00,NW,306,9.0,22.0,84,-99.99,,,0.00,128.660004,,2013-01-30 19:12:00,
2013-01-30 12:11:00,48.0,42.0,-100.00,NW,306,10.0,26.0,81,-99.99,,,0.00,351.220001,,2013-01-30 20:11:00,
2013-01-30 13:12:00,49.0,43.0,-100.00,NW,307,8.0,22.0,80,-99.99,,,0.00,239.880005,,2013-01-30 21:12:00,
2013-01-30 14:11:00,49.0,43.0,-100.00,NW,311,8.0,18.0,81,-99.99,,,0.00,206.059998,,2013-01-30 22:11:00,
2013-01-30 15:12:00,48.0,44.0,-100.00,NW,309,9.0,19.0,86,-99.99,,,0.00,94.250000,,2013-01-30 23:12:00,
2013-01-30 16:11:00,48.0,44.0,-100.00,NW,307,7.0,18.0,85,-99.99,,,0.00,94.370003,,2013-01-31 00:11:00,
2013-01-30 17:11:00,48.0,44.0,-100.00,NW,307,9.0,21.0,88,-99.99,,,0.00,34.750000,,2013-01-31 01:11:00,
2013-01-30 18:11:00,48.0,45.0,-100.00,WNW,300,6.0,14.0,89,-99.99,,,0.00,2.090000,,2013-01-31 02:11:00,
2013-01-30 19:11:00,48.0,45.0,-100.00,WNW,295,6.0,16.0,89,-99.99,,,0.00,0.000000,,2013-01-31 03:11:00,
2013-01-30 20:11:00,48.0,45.0,-100.00,WNW,297,6.0,16.0,88,-99.99,,,0.00,0.000000,,2013-01-31 04:11:00,
2013-01-30 21:11:00,48.0,45.0,-100.00,WNW,296,6.0,13.0,89,-99.99,,,0.00,0.000000,,2013-01-31 05:11:00,